Washington County, Wisconsin, United States
Lat: 43.37N, Lon: 88.22W
Wx Zone: WIZ059
Local Info
Past Weather Observations for Today

NOTE: This archive is for the closest National Weather Service station to Washington County. Information may differ from the station used for current weather conditions.

Click here for Long-term Archive

Time Weather Temperature Dewpoint Humidity Pressure Winds Precip Visibility
17:50
Clear
9°F / -13°C -6°F / -21°C 51% 30.33 in
(1027 mb)
NW 3.5 mph
(NW 6 kph)
- 10SM
17:30
Clear
9°F / -13°C -6°F / -21°C 51% 30.33 in
(1027 mb)
NW 5.8 mph
(NW 9 kph)
- 10SM
17:10
Clear
10°F / -12°C -6°F / -21°C 47% 30.33 in
(1027 mb)
NW 8.1 mph
(NW 13 kph)
- 10SM
16:50
Clear
10°F / -12°C -8°F / -22°C 44% 30.33 in
(1027 mb)
NNW 9.2 mph
(NNW 15 kph)
- 10SM
16:30
Clear
10°F / -12°C -6°F / -21°C 47% 30.3 in
(1026 mb)
NW 10.4 mph
(NW 17 kph)
- 10SM
16:10
Clear
12°F / -11°C -4°F / -20°C 48% 30.3 in
(1026 mb)
NW 9.2 mph
(NW 15 kph)
- 10SM
15:50
Clear
12°F / -11°C -4°F / -20°C 48% 30.3 in
(1026 mb)
NNW 10.4 mph
(NNW 17 kph)
- 10SM
15:30
Partly Cloudy
12°F / -11°C -4°F / -20°C 48% 30.3 in
(1026 mb)
NW 11.5 mph
(NW 19 kph)
- 10SM
15:10
Clear
12°F / -11°C -6°F / -21°C 44% 30.27 in
(1025 mb)
N 10.4 mph
(N 17 kph)
- 10SM
14:50
Clear
12°F / -11°C -4°F / -20°C 48% 30.27 in
(1025 mb)
NNE 9.2 mph
(NNE 15 kph)
- 10SM
14:30
Clear
12°F / -11°C -6°F / -21°C 44% 30.27 in
(1025 mb)
NNW 11.5 mph
(NNW 19 kph)
- 10SM
14:10
Clear
12°F / -11°C -6°F / -21°C 44% 30.27 in
(1025 mb)
NNW 10.4 mph
(NNW 17 kph)
- 10SM
13:50
Clear
12°F / -11°C -6°F / -21°C 44% 30.27 in
(1025 mb)
NNW 11.5 mph
(NNW 19 kph)
- 10SM
13:30
Clear
12°F / -11°C -6°F / -21°C 44% 30.27 in
(1025 mb)
NNW 13.8 mph
(NNW 22 kph)
- 10SM
13:10
Clear
12°F / -11°C -8°F / -22°C 40% 30.27 in
(1025 mb)
NNW 9.2 mph
(NNW 15 kph)
- 10SM
12:50
Clear
12°F / -11°C -6°F / -21°C 44% 30.27 in
(1025 mb)
NNW 10.4 mph
(NNW 17 kph)
- 10SM
12:30
Clear
12°F / -11°C -6°F / -21°C 44% 30.27 in
(1025 mb)
NNW 9.2 mph
(NNW 15 kph)
- 10SM
12:10
Clear
12°F / -11°C -6°F / -21°C 44% 30.27 in
(1025 mb)
N 11.5 mph
(N 19 kph)
- 10SM
11:50
Clear
10°F / -12°C -6°F / -21°C 47% 30.27 in
(1025 mb)
NNW 6.9 mph
(NNW 11 kph)
- 10SM
11:30
Clear
10°F / -12°C -6°F / -21°C 47% 30.27 in
(1025 mb)
NNW 11.5 mph
(NNW 19 kph)
- 10SM
11:10
Clear
12°F / -11°C -4°F / -20°C 48% 30.27 in
(1025 mb)
N 9.2 mph
(N 15 kph)
- 10SM
10:50
Clear
10°F / -12°C -4°F / -20°C 52% 30.27 in
(1025 mb)
N 10.4 mph
(N 17 kph)
- 10SM
10:30
Clear
10°F / -12°C -4°F / -20°C 52% 30.27 in
(1025 mb)
NNW 10.4 mph
(NNW 17 kph)
- 10SM
10:10
Clear
10°F / -12°C -4°F / -20°C 52% 30.27 in
(1025 mb)
NNW 11.5 mph
(NNW 19 kph)
- 10SM
09:50
Clear
9°F / -13°C -4°F / -20°C 56% 30.27 in
(1025 mb)
NNW 10.4 mph
(NNW 17 kph)
- 10SM
09:30
Clear
9°F / -13°C -4°F / -20°C 56% 30.24 in
(1024 mb)
NNW 10.4 mph
(NNW 17 kph)
- 10SM
09:10
Clear
7°F / -14°C -4°F / -20°C 61% 30.24 in
(1024 mb)
N 9.2 mph
(N 15 kph)
- 10SM
08:50
Clear
5°F / -15°C -6°F / -21°C 60% 30.24 in
(1024 mb)
N 10.4 mph
(N 17 kph)
- 10SM
08:30
Clear
5°F / -15°C -6°F / -21°C 60% 30.24 in
(1024 mb)
NNW 9.2 mph
(NNW 15 kph)
- 10SM
08:10
Mostly Cloudy
3°F / -16°C -6°F / -21°C 66% 30.24 in
(1024 mb)
NNW 8.1 mph
(NNW 13 kph)
- 10SM
07:50
Overcast
3°F / -16°C -6°F / -21°C 66% 30.24 in
(1024 mb)
N 9.2 mph
(N 15 kph)
- 10SM
07:30
Mostly Cloudy
1°F / -17°C -8°F / -22°C 65% 30.24 in
(1024 mb)
NNW 8.1 mph
(NNW 13 kph)
- 10SM
07:10
Partly Cloudy
1°F / -17°C -8°F / -22°C 65% 30.24 in
(1024 mb)
NNW 6.9 mph
(NNW 11 kph)
- 10SM
06:50
Partly Cloudy
1°F / -17°C -8°F / -22°C 65% 30.21 in
(1023 mb)
NNW 9.2 mph
(NNW 15 kph)
- 10SM
06:30
Mostly Cloudy
1°F / -17°C -6°F / -21°C 71% 30.21 in
(1023 mb)
NNW 9.2 mph
(NNW 15 kph)
- 10SM
06:10
Mostly Cloudy
3°F / -16°C -8°F / -22°C 60% 30.21 in
(1023 mb)
NNW 10.4 mph
(NNW 17 kph)
- 10SM
05:50
Partly Cloudy
3°F / -16°C -8°F / -22°C 60% 30.18 in
(1022 mb)
NNW 9.2 mph
(NNW 15 kph)
- 10SM
05:30
Clear
3°F / -16°C -8°F / -22°C 60% 30.18 in
(1022 mb)
NNW 8.1 mph
(NNW 13 kph)
- 10SM
05:10
Partly Cloudy
3°F / -16°C -8°F / -22°C 60% 30.18 in
(1022 mb)
NNW 9.2 mph
(NNW 15 kph)
- 10SM
04:50
Mostly Cloudy
3°F / -16°C -6°F / -21°C 66% 30.15 in
(1021 mb)
NNW 9.2 mph
(NNW 15 kph)
- 10SM
04:30
Overcast
5°F / -15°C -6°F / -21°C 60% 30.15 in
(1021 mb)
N 9.2 mph
(N 15 kph)
- 10SM
04:10
Overcast
5°F / -15°C -4°F / -20°C 66% 30.15 in
(1021 mb)
N 8.1 mph
(N 13 kph)
- 10SM
03:50
Overcast
5°F / -15°C -4°F / -20°C 66% 30.15 in
(1021 mb)
N 10.4 mph
(N 17 kph)
- 10SM
03:30
Overcast
7°F / -14°C -2°F / -19°C 66% 30.12 in
(1020 mb)
N 11.5 mph
(N 19 kph)
- 10SM
03:10
Overcast
9°F / -13°C 1°F / -17°C 72% 30.12 in
(1020 mb)
N 10.4 mph
(N 17 kph)
- 10SM
02:50
Overcast
9°F / -13°C 1°F / -17°C 72% 30.12 in
(1020 mb)
N 13.8 mph
(N 22 kph)
- 10SM
Time Weather Temperature Dewpoint Humidity Pressure Winds Precip Visibility


Weather for websites

WeatherForYou.com, LLC is not responsible for any damages or problems caused by this service. Current weather conditions are obtained from the closest station including government and personal stations which may have varying degrees of accuracy. Weather forecasts are derived from the NOAA NDFD. Like all things, this site belongs to Jesus Christ... He just trusts me to maintain it. If you have any questions or comments email webmaster@weatherforyou.com

Copyright © 2015, WeatherForYou.com LLC. All rights reserved.